Regional Weather Roundup
Issued by NWS

Home | Current Version | Previous Version | Text Only | Print | Product List | Glossary On
Versions: 1 2 3 4 5 6 7 8 9 10 11 12 13 14 15 16 17 18 19 20 21 22 23 24 25 26 27 28 29 30 31 32 33 34 35 36 37 38 39 40 41 42 43 44 45 46 47 48 49 50
000
ASUS44 KLUB 170601
RWRTX
WEST TEXAS WEATHER ROUNDUP
NATIONAL WEATHER SERVICE LUBBOCK TX
100 AM CDT WED SEP 17 2014

NOTE: "FAIR" INDICATES FEW OR NO CLOUDS BELOW 12,000 FEET WITH NO
SIGNIFICANT WEATHER AND/OR OBSTRUCTIONS TO VISIBILITY.

TXZ004-006>008-010-012-014-016-OKZ002-170700-
TEXAS PANHANDLE/OKLAHOMA PANHANDLE

CITY           SKY/WX    TMP DP  RH WIND       PRES   REMARKS
AMARILLO       MOCLDY    65  62  90 SW6       30.11F
BORGER         MOCLDY    71  63  75 SW8G17    30.07S
CANADIAN       MOCLDY    70  65  84 S5        30.03F
DALHART        CLOUDY    65  60  84 SW9       30.11F
GUYMON         CLEAR     66  62  87 SW9       30.02F
HEREFORD       CLOUDY    66  64  92 SW7       30.13S
PAMPA          MOCLDY    65  61  86 SW8       30.09F
PERRYTON       PTCLDY    65  60  85 S10       30.03F
$$

TXZ026-029-035-045-048-170700-
SOUTHERN PANHANDLE/SOUTH PLAINS/ROLLING PLAINS

CITY           SKY/WX    TMP DP  RH WIND       PRES   REMARKS
CHILDRESS      CLOUDY    73  67  81 SW5       30.04F
SEMINOLE       MOCLDY    67  65  94 CALM      30.13F
LUBBOCK        LGT RAIN  69  67  93 SW3       30.12S FOG
PLAINVIEW      CLOUDY    65  63  94 CALM      30.11F
SNYDER         CLOUDY    71  69  92 E5        30.09F
$$

TXZ052-054-060>062-072-078-127-140-154-169-170700-
PERMIAN BASIN/CONCHO VALLEY/BIG COUNTRY/EDWARDS PLATEAU

CITY           SKY/WX    TMP DP  RH WIND       PRES   REMARKS
ABILENE        CLOUDY    78  66  66 SE5       30.06F
BIG SPRING     CLOUDY    74  69  84 N3        30.11F
BRADY            N/A     73  72  94 SE5       30.04F
BROWNWOOD      CLOUDY    77  68  73 SE6       30.03F
JUNCTION       CLOUDY    77  69  76 CALM      30.03F
MIDLAND        CLOUDY    73  66  78 E7        30.09F
ODESSA         MOCLDY    71  65  81 E6        30.11F
SAN ANGELO     CLOUDY    78  67  68 SE13      30.05S
SONORA         MOCLDY    75  68  78 SE6       30.10F
SWEETWATER     CLOUDY    72  72  99 CALM      30.11F
WINK           MOCLDY    73  68  84 E8        30.06F
$$

TXZ055-058-074-075-080-082-170700-
FAR WEST/SOUTHWEST MOUNTAINS/TRANS PECOS

CITY           SKY/WX    TMP DP  RH WIND       PRES   REMARKS
ALPINE         CLOUDY    68  60  77 CALM      30.20F
DRYDEN           N/A     77  69  76 NE3       30.03S
EL PASO        CLOUDY    69  64  84 N14       30.09F
FORT STOCKTON  MOCLDY    70  65  84 SE6       30.08F
GUADALUPE PASS CLOUDY    64  61  90 NE28      30.21F
MARFA          CLOUDY    64  59  82 NE6       30.19F
PRESIDIO       FAIR      78  63  60 NE10      30.03S
$$

TXZ014-016-019-021>030-083-170700
TEXAS TECH WEST TEXAS MESONET/TEXAS PANHANDLE/NORTHERN SOUTH PLAINS

CITY           SKY/WX    TMP DP  RH WIND       PRES   REMARKS
ABERNATHY 5ENE   N/A     66  64  93 SW2       30.14F
AMARILLO 9NNE    N/A     67  63  89 S6        30.10F
AMARILLO 7SSE    N/A     65  62  91 SW8       30.12F
AMHERST 1NE      N/A     65  64  97 S3        30.15S
BOOTLEG 11WNW    N/A     62  61  94 SW7       30.18F
CANADIAN 6E      N/A     70  65  82 S9        30.03F
CAPROCK CYN SP   N/A     72  63  73 SW7       30.08F
CLARENDON 2WSW   N/A     67  62  84 S7        30.09F
CLAUDE 12SW      N/A     69  62  78 S5        30.12F
DIMMITT 2NE      N/A     65  62  91 SW7       30.14F
FLOYDADA 2NNE    N/A     66  65  96 SW2       30.12S
FRIONA 2NE       N/A     63  60  90 W5        30.16F
GOODLETT 3W      N/A     72  66  82 SW5       30.02F
HART 3N          N/A     63  61  94 S3        30.14F
HEREFORD 2NW     N/A     64  60  87 SW7       30.15F
MCLEAN 1E        N/A     69  64  84 SW7       30.08S
MEMPHIS 1NE      N/A     72  65  78 SW3       30.06S
MULESHOE 2SSW    N/A     65  64  95 SW2       30.15S
OLTON 6S         N/A     65  62  90 S3        30.14F
PALO DURO SP     N/A     67  62  85 S5        30.13F
PAMPA 2E         N/A     67  62  85 SW7       30.10S
PLAINVIEW 1S     N/A     66  64  94 S5        30.13F
SILVERTON 7ESE   N/A     67  63  87 SW8       30.09F
TULIA 2ENE       N/A     64  61  91 S5        30.13F
TURKEY 2WSW      N/A     70  66  85 SW8       30.07F
UMBARGER 3NNE    N/A     64  62  93 SW8       30.14S
$$

TXZ033>036-039>041-045>048-170700
TEXAS TECH WEST TEXAS MESONET/SOUTH PLAINS

CITY           SKY/WX    TMP DP  RH WIND       PRES   REMARKS
AIKEN 3WSW       N/A     66  65  96 W3        30.14F
BROWNFIELD 2S    N/A     67  64  93 SE5       30.14F
DENVR CTY 7WNW   N/A     66  64  93 SE2       30.16S
GAIL 2ESE        N/A     69  67  93 NW3       30.10F
LAMESA 2SE       N/A     69  67  94 E3        30.12F
LEVELLAND 4S     N/A     66  64  93 E2        30.15F
LUBBOCK 3WNW     N/A     68  66  93 CALM      30.14S
MORTON 1ENE      N/A     65  64  96 E6        30.15F
ODONNELL 1N      N/A     67  65  91 E3        30.13F
PLAINS 3N        N/A     67  65  94 SE2       30.16S
RALLS 1SE        N/A     69  65  88 W2        30.13S
REESE CENTER     N/A     67  66  96 CALM      30.14F
SEAGRAVES 1SW    N/A     67  65  93 E2        30.15S
SEMINOLE 2NNE    N/A     67  64  90 E6        30.13F
SLATON 2NE       N/A     67  65  94 SW3       30.13S
SNYDER 3E        N/A     71  67  89 NE7       30.09F
SUNDOWN 8SW      N/A     67  65  95 SE5       30.15F
TAHOKA 3NNE      N/A     67  65  94 S5        30.13F
WOLFFORTH 6SSW   N/A     67  66  97 E3        30.14S
$$

TXZ031-032-036>038-042>044-170700-
TEXAS TECH WEST TEXAS MESONET/ROLLING PLAINS

CITY           SKY/WX    TMP DP  RH WIND       PRES   REMARKS
ASPERMONT 3NE    N/A     73  70  89 SW3       30.06F
FLUVANNA 3WNW    N/A     69  67  91 E3        30.11F
GRAHAM 5SSW      N/A     68  65  92 CALM      30.12S
GUTHRIE 10WSW    N/A     72  67  85 S5        30.06F
HASKELL 1NW      N/A     74  67  79 SW3       30.05F
JAYTON 1SSE      N/A     71  69  91 S2        30.07F
KNOX CITY 3NW    N/A     75  67  78 S3        30.04F
LK A HENRY 1NW   N/A     70  69  96 CALM      30.09S
ODELL 4ENE       N/A     75  68  79 SE5       30.03F
PADUCAH 10SW     N/A     71  68  90 S6        30.06F
POST 1NE         N/A     69  68  97 S3        30.10S
RRING SPRGS 3N   N/A     69  67  91 SW6       30.08F
SEYMOUR 3NW      N/A     75  68  78 SW3       30.03F
SPUR 1W          N/A     70  67  89 S1        30.09S
WEINERT 2NNE     N/A     74  69  86 SW3       30.05F
WHITE RVR 6NE    N/A     68  66  93 SW1       30.11S
$$

TXZ052-054-060>062-072-078-127-140-154-169-170700-
TEXAS TECH WEST TEXAS MESONET/PERMIAN BASIN/
CONCHO VALLEY/BIG COUNTRY/EDWARDS PLATEAU

CITY           SKY/WX    TMP DP  RH WIND       PRES   REMARKS
COYANOSA 2N      N/A     74  64  69 E7        30.07F
JUNCTION 1SSW    N/A     74  72  95 CALM      30.05F
MERTZON 3NNE     N/A     78  67  69 S3        30.08S
SAN ANGELO 7NW   N/A     77  66  68 SE7       30.06F
STRLNG CT 4WSW   N/A     74  67  78 CALM      30.09F
ST LAWRNCE 5SW   N/A     72  64  76 E3        30.10F
SWEETWATR 11SW   N/A     71  68  88 NE8       30.11F
WALL 1E          N/A     76  66  70 SE12      30.06F
$$

TXZ055-058-074-075-080-082-170700-
TEXAS TECH WEST TEXAS MESONET/FAR WEST/SOUTHWEST MOUNTAINS/TRANS PECOS

CITY           SKY/WX    TMP DP  RH WIND       PRES   REMARKS
PRSMN GAP BBNP   N/A     75  64  69 N14       30.06F
GUADLPE MTN NP   N/A     64  59  83 E6        30.26S
$$


USA.gov is the U.S. government's official web portal to all federal, state and local government web resources and services.